Change the Weather History Date:

Sunday, April 27, 2014

  Actual Average Record
Temperature  
Mean Temperature 66 °F 59 °F  
Max Temperature 72 °F 69 °F 89 °F (1956)
Min Temperature 59 °F 49 °F 33 °F (1967)
Degree Days  
Heating Degree Days 0 7  
Month to date heating degree days 294 295  
Since 1 July heating degree days 5531 4812  
Cooling Degree Days 1 1  
Month to date cooling degree days 5 19  
Year to date cooling degree days 5 20  
Growing Degree Days 16 (Base 50)    
Moisture  
Dew Point 60 °F    
Average Humidity 76    
Maximum Humidity 93    
Minimum Humidity 58    
Precipitation  
Precipitation 1.06 in 0.17 in 2.80 in (1940)
Month to date precipitation 4.74 3.41  
Year to date precipitation 6.02 8.73  
Sea Level Pressure  
Sea Level Pressure 29.40 in    
Wind  
Wind Speed 14 mph (SSE)    
Max Wind Speed 26 mph    
Max Gust Speed 36 mph    
Visibility 8 miles    
Events Fog , Rain , Thunderstorm    
T = Trace of Precipitation, MM = Missing Value Source: NWS Daily Summary

Daily Weather History Graph

Daily Weather History Graph

Search for Another Location

Airport or City:

Trip Planner

Search our weather history database for the weather conditions in past years. The results will help you decide how hot, cold, wet, or windy it might be!

Date:

Astronomy

Apr. 27, 2014 Rise Set
Actual Time 6:26 AM CDT 8:07 PM CDT
Civil Twilight 5:57 AM CDT 8:36 PM CDT
Nautical Twilight 5:23 AM CDT 9:10 PM CDT
Astronomical Twilight 4:46 AM CDT 9:47 PM CDT
Moon 5:26 AM CDT (4/27) 6:43 PM CDT (4/27)
Length of Visible Light 14h 38m
Length of Day
13h 41m
Waning Crescent, 3% of the Moon is Illuminated
Apr 27
Waning Crescent
Apr 29
New
May 6
First Quarter
May 14
Full
May 21
Last Quarter

Hourly Weather History & Observations

Time (CDT) Temp. Dew Point Humidity Pressure Visibility Wind Dir Wind Speed Gust Speed Precip Events Conditions
12:53 AM 66.9 °F 51.1 °F 57% 29.54 in 10.0 mi SSE 11.5 mph - N/A   Clear
1:53 AM 66.0 °F 53.1 °F 63% 29.53 in 10.0 mi SSE 10.4 mph - N/A   Clear
2:53 AM 66.9 °F 55.0 °F 66% 29.50 in 10.0 mi South 13.8 mph - N/A   Clear
3:53 AM 66.9 °F 55.9 °F 68% 29.49 in 10.0 mi SSE 15.0 mph 23.0 mph N/A   Clear
4:53 AM 66.9 °F 57.9 °F 73% 29.49 in 10.0 mi SSE 17.3 mph - N/A   Clear
5:53 AM 66.0 °F 57.9 °F 75% 29.48 in 10.0 mi SE 13.8 mph - N/A   Clear
6:53 AM 66.0 °F 59.0 °F 78% 29.46 in 9.0 mi SSE 12.7 mph - N/A   Clear
7:53 AM 69.1 °F 61.0 °F 75% 29.43 in 8.0 mi SSE 21.9 mph 35.7 mph N/A   Scattered Clouds
8:53 AM 70.0 °F 62.1 °F 76% 29.43 in 9.0 mi SSE 18.4 mph 27.6 mph N/A   Mostly Cloudy
9:53 AM 70.0 °F 62.1 °F 76% 29.44 in 8.0 mi SSE 17.3 mph 24.2 mph N/A   Overcast
10:53 AM 70.0 °F 62.1 °F 76% 29.42 in 9.0 mi South 15.0 mph - N/A   Overcast
11:16 AM 70.0 °F 61.0 °F 73% 29.44 in 9.0 mi SSE 16.1 mph - N/A Thunderstorm Overcast
11:34 AM 68.0 °F 61.0 °F 78% 29.49 in 5.0 mi WSW 20.7 mph 27.6 mph 0.04 in Rain , Thunderstorm Light Thunderstorms and Rain
11:41 AM 63.0 °F 57.9 °F 84% 29.48 in 8.0 mi WSW 15.0 mph 32.2 mph 0.05 in Rain , Thunderstorm Light Thunderstorms and Rain
11:53 AM 61.0 °F 57.0 °F 87% 29.46 in 4.0 mi SW 10.4 mph 21.9 mph 0.10 in Rain , Thunderstorm Light Thunderstorms and Rain
12:22 PM 60.1 °F 57.0 °F 90% 29.43 in 9.0 mi West 9.2 mph - 0.03 in Rain , Thunderstorm Light Rain
12:50 PM 60.8 °F 57.2 °F 88% 29.51 in 7.0 mi South 11.5 mph - 0.05 in Rain Light Rain
12:53 PM 60.1 °F 57.0 °F 90% 29.49 in 7.0 mi South 8.1 mph - 0.05 in Rain Light Rain
1:53 PM 60.1 °F 57.9 °F 93% 29.32 in 10.0 mi East 6.9 mph - 0.03 in   Partly Cloudy
3:53 PM 64.9 °F 57.9 °F 78% 29.34 in 10.0 mi SSE 17.3 mph 24.2 mph N/A   Clear
4:53 PM 69.1 °F 61.0 °F 75% 29.32 in 10.0 mi SSE 18.4 mph 27.6 mph N/A   Partly Cloudy
5:53 PM 71.1 °F 63.0 °F 75% 29.29 in 10.0 mi ESE 20.7 mph 25.3 mph N/A   Scattered Clouds
6:16 PM 66.9 °F 63.0 °F 87% 29.33 in 1.8 mi South 17.3 mph 25.3 mph 0.14 in Rain , Thunderstorm Heavy Rain
6:20 PM 66.0 °F 63.0 °F 90% 29.34 in 1.0 mi SE 8.1 mph 25.3 mph 0.27 in Rain , Thunderstorm Heavy Thunderstorms and Rain
6:26 PM 66.0 °F 63.0 °F 90% 29.32 in 2.0 mi NW 8.1 mph 17.3 mph 0.39 in Rain , Thunderstorm Heavy Thunderstorms and Rain
6:40 PM 66.0 °F 63.0 °F 90% 29.34 in 3.0 mi WSW 6.9 mph 17.3 mph 0.45 in Rain , Thunderstorm Light Thunderstorms and Rain
6:42 PM 66.0 °F 63.0 °F 90% 29.34 in 1.8 mi SW 4.6 mph 17.3 mph 0.49 in Rain , Thunderstorm Heavy Thunderstorms and Rain
6:45 PM 64.0 °F 62.1 °F 93% 29.36 in 1.0 mi Variable 6.9 mph 17.3 mph 0.56 in Rain , Thunderstorm Heavy Rain
6:48 PM 62.6 °F 60.8 °F 94% 29.36 in 0.5 mi SW 8.1 mph - 0.64 in Fog , Rain , Thunderstorm Heavy Rain
6:53 PM 64.0 °F 61.0 °F 90% 29.32 in 0.2 mi North - - 0.88 in Fog , Rain , Thunderstorm Heavy Rain
6:55 PM 64.9 °F 61.0 °F 87% 29.34 in 3.0 mi ESE 11.5 mph 17.3 mph 0.00 in Rain , Thunderstorm Heavy Rain
7:11 PM 66.0 °F 61.0 °F 84% 29.35 in 10.0 mi SSE 17.3 mph 27.6 mph 0.00 in Thunderstorm Overcast
7:23 PM 64.9 °F 61.0 °F 87% 29.35 in 10.0 mi SE 12.7 mph 19.6 mph 0.00 in   Overcast
7:53 PM 64.9 °F 61.0 °F 87% 29.32 in 10.0 mi SE 13.8 mph 19.6 mph 0.00 in   Partly Cloudy
8:53 PM 64.0 °F 60.1 °F 87% 29.33 in 10.0 mi SSE 15.0 mph 26.5 mph N/A   Clear
9:53 PM 63.0 °F 60.1 °F 90% 29.34 in 10.0 mi SSE 10.4 mph - N/A   Clear
10:00 PM 63.0 °F 60.1 °F 90% 29.36 in 10.0 mi SE 11.5 mph - N/A   Scattered Clouds
10:18 PM 63.0 °F 60.1 °F 90% 29.36 in 10.0 mi SE 10.4 mph - N/A   Mostly Cloudy
10:53 PM 62.1 °F 60.1 °F 93% 29.35 in 10.0 mi SE 12.7 mph - N/A   Mostly Cloudy
11:10 PM 62.1 °F 60.1 °F 93% 29.37 in 10.0 mi SE 11.5 mph - N/A   Scattered Clouds
11:17 PM 62.1 °F 60.1 °F 93% 29.36 in 10.0 mi ESE 12.7 mph - N/A   Mostly Cloudy
11:37 PM 62.1 °F 60.1 °F 93% 29.36 in 10.0 mi ESE 10.4 mph - N/A   Scattered Clouds